QTR646 OTHH-VNKT

Flight info

Callsign QTR646
Flight time 4h 9m
Altitude 40000
Route DATRI DCT DEMTA DCT 21N051E/N0461F390 21N053E DCT MIDGU M440 TULBU G652 SODEB G216 LAKIV A791 KC R462 RAMSA Z15 JDP W58 JJP J20 LKN W86 APIPU G598 SMR SMR
Aircraft A333/H-SDE3GHIJ2J3J5M1RVWXY/LB2D1

Departure

Time 2026-05-04 07:24
Airport Hamad International Airport (OTHH)

Arrival

Time 2026-05-04 11:33
Airport Tribhuvan International Airport (VNKT)
Time Latitude Longitude Altitude Speed Heading
2026-05-04 06:53 25.26460 51.61098 34 ft 0 kts 68°
2026-05-04 07:09 25.26460 51.61097 34 ft 2 kts 68°
2026-05-04 07:09 25.26450 51.61071 32 ft 4 kts 68°
2026-05-04 07:09 25.26442 51.61048 32 ft 3 kts 69°
2026-05-04 07:09 25.26436 51.61021 31 ft 4 kts 97°
2026-05-04 07:10 25.26445 51.60997 32 ft 4 kts 145°
2026-05-04 07:10 25.26468 51.60985 31 ft 4 kts 158°
2026-05-04 07:12 25.26481 51.60979 30 ft 0 kts 158°
2026-05-04 07:14 25.26467 51.60985 31 ft 2 kts 158°
2026-05-04 07:14 25.26451 51.60992 30 ft 4 kts 158°
2026-05-04 07:15 25.26426 51.61003 46 ft 4 kts 158°
2026-05-04 07:15 25.26398 51.61016 34 ft 5 kts 158°
2026-05-04 07:15 25.26367 51.61030 34 ft 5 kts 158°
2026-05-04 07:15 25.26320 51.61050 34 ft 9 kts 158°
2026-05-04 07:16 25.26264 51.61065 34 ft 8 kts 185°
2026-05-04 07:16 25.26224 51.61028 34 ft 8 kts 234°
2026-05-04 07:16 25.26200 51.60976 34 ft 7 kts 247°
2026-05-04 07:16 25.26180 51.60922 34 ft 8 kts 248°
2026-05-04 07:17 25.26160 51.60866 34 ft 8 kts 248°
2026-05-04 07:17 25.26138 51.60807 34 ft 8 kts 248°
2026-05-04 07:17 25.26116 51.60746 34 ft 9 kts 248°
2026-05-04 07:17 25.26093 51.60683 34 ft 9 kts 247°
2026-05-04 07:18 25.26049 51.60639 33 ft 8 kts 193°
2026-05-04 07:18 25.25995 51.60652 33 ft 8 kts 161°
2026-05-04 07:18 25.25942 51.60675 33 ft 8 kts 158°
2026-05-04 07:18 25.25887 51.60700 33 ft 9 kts 158°
2026-05-04 07:19 25.25829 51.60725 33 ft 9 kts 159°
2026-05-04 07:19 25.25816 51.60730 33 ft 0 kts 159°
2026-05-04 07:19 25.25812 51.60732 33 ft 1 kts 159°
2026-05-04 07:19 25.25802 51.60736 33 ft 3 kts 159°
2026-05-04 07:20 25.25770 51.60750 33 ft 7 kts 159°
2026-05-04 07:20 25.25710 51.60777 33 ft 12 kts 158°
2026-05-04 07:20 25.25632 51.60757 33 ft 14 kts 237°
2026-05-04 07:20 25.25599 51.60676 32 ft 0 kts 247°
2026-05-04 07:22 25.25695 51.60474 29 ft 3 kts 340°
2026-05-04 07:22 25.25739 51.60454 30 ft 22 kts 338°
2026-05-04 07:23 25.26084 51.60303 33 ft 82 kts 338°
2026-05-04 07:23 25.26780 51.59996 29 ft 132 kts 338°
2026-05-04 07:23 25.27765 51.59564 99 ft 167 kts 339°
2026-05-04 07:23 25.28866 51.59065 576 ft 176 kts 336°
2026-05-04 07:24 25.30037 51.58512 1015 ft 190 kts 336°
2026-05-04 07:24 25.31302 51.57887 1513 ft 209 kts 335°
2026-05-04 07:24 25.32658 51.57198 2018 ft 216 kts 335°
2026-05-04 07:24 25.34027 51.56489 2539 ft 218 kts 335°
2026-05-04 07:25 25.35411 51.55783 3066 ft 220 kts 335°
2026-05-04 07:26 25.46649 51.51053 3999 ft 254 kts 326°
2026-05-04 07:27 25.47860 51.49674 4262 ft 258 kts 302°
2026-05-04 07:27 25.48389 51.47755 4735 ft 268 kts 278°
2026-05-04 07:27 25.48391 51.45683 5268 ft 271 kts 271°
2026-05-04 07:27 25.48285 51.43588 5740 ft 275 kts 270°
2026-05-04 07:28 25.48170 51.41456 6211 ft 279 kts 271°
2026-05-04 07:28 25.48060 51.39301 6693 ft 282 kts 271°
2026-05-04 07:28 25.47955 51.37128 7216 ft 283 kts 270°
2026-05-04 07:28 25.47854 51.34959 7806 ft 282 kts 270°
2026-05-04 07:29 25.47755 51.32785 8358 ft 283 kts 270°
2026-05-04 07:29 25.47656 51.30601 8911 ft 285 kts 269°
2026-05-04 07:29 25.47318 51.28432 9485 ft 290 kts 252°
2026-05-04 07:29 25.46222 51.26548 10016 ft 298 kts 225°
2026-05-04 07:30 25.44396 51.25392 10339 ft 314 kts 197°
2026-05-04 07:30 25.42173 51.25142 10575 ft 331 kts 182°
2026-05-04 07:30 25.39825 51.25195 10806 ft 344 kts 180°
2026-05-04 07:30 25.37390 51.25278 11021 ft 356 kts 180°
2026-05-04 07:31 25.34875 51.25347 11278 ft 366 kts 180°
2026-05-04 07:31 25.32312 51.25403 11683 ft 370 kts 181°
2026-05-04 07:33 25.17446 51.34818 14792 ft 392 kts 116°
2026-05-04 07:33 25.16407 51.37615 15107 ft 397 kts 110°
2026-05-04 07:33 25.15641 51.40552 15482 ft 400 kts 102°
2026-05-04 07:33 25.15075 51.43561 15904 ft 401 kts 101°
2026-05-04 07:34 25.14577 51.46592 16310 ft 403 kts 99°
2026-05-04 07:34 25.14123 51.49648 16672 ft 405 kts 99°
2026-05-04 07:34 25.13692 51.52730 17082 ft 407 kts 98°
2026-05-04 07:34 25.13270 51.55823 17476 ft 408 kts 98°
2026-05-04 07:35 25.12846 51.58934 17807 ft 411 kts 98°
2026-05-04 07:35 25.12416 51.62059 18194 ft 413 kts 99°
2026-05-04 07:35 25.11980 51.65201 18512 ft 415 kts 99°
2026-05-04 07:35 25.11539 51.68352 18811 ft 417 kts 99°
2026-05-04 07:36 25.11092 51.71521 19126 ft 419 kts 99°
2026-05-04 07:36 25.10642 51.74706 19438 ft 421 kts 99°
2026-05-04 07:38 25.07416 51.97352 21581 ft 434 kts 100°
2026-05-04 07:38 25.06945 52.00645 21885 ft 436 kts 100°
2026-05-04 07:38 25.06469 52.03959 22181 ft 438 kts 100°
2026-05-04 07:38 25.05992 52.07281 22508 ft 439 kts 100°
2026-05-04 07:39 25.05512 52.10616 22796 ft 441 kts 101°
2026-05-04 07:39 25.05029 52.13966 23087 ft 443 kts 101°
2026-05-04 07:39 25.04543 52.17328 23371 ft 445 kts 101°
2026-05-04 07:39 25.04054 52.20707 23614 ft 447 kts 101°
2026-05-04 07:40 25.03563 52.24099 23825 ft 450 kts 101°
2026-05-04 07:40 25.03067 52.27515 24036 ft 452 kts 101°
2026-05-04 07:40 25.02569 52.30945 24242 ft 455 kts 101°
2026-05-04 07:40 25.02065 52.34402 24451 ft 457 kts 101°
2026-05-04 07:41 25.01560 52.37870 24671 ft 460 kts 101°
2026-05-04 07:41 25.01050 52.41358 24887 ft 462 kts 101°
2026-05-04 07:41 25.00537 52.44863 25105 ft 464 kts 101°
2026-05-04 07:41 25.00021 52.48386 25313 ft 467 kts 101°
2026-05-04 07:42 24.99501 52.51926 25516 ft 469 kts 101°
2026-05-04 07:42 24.98978 52.55482 25725 ft 472 kts 100°
2026-05-04 07:42 24.98451 52.59060 25936 ft 474 kts 100°
2026-05-04 07:42 24.97921 52.62652 26174 ft 475 kts 100°
2026-05-04 07:43 24.97389 52.66250 26396 ft 477 kts 100°
2026-05-04 07:43 24.96853 52.69869 26591 ft 480 kts 100°
2026-05-04 07:43 24.96314 52.73506 26783 ft 482 kts 100°
2026-05-04 07:43 24.95771 52.77157 26992 ft 484 kts 100°
2026-05-04 07:44 24.95225 52.80823 27176 ft 487 kts 100°
2026-05-04 07:44 24.94674 52.84521 27374 ft 489 kts 100°
2026-05-04 07:44 24.94129 52.88170 27571 ft 491 kts 100°
2026-05-04 07:44 24.93572 52.91894 27772 ft 493 kts 100°
2026-05-04 07:45 24.93012 52.95628 27975 ft 495 kts 100°
2026-05-04 07:45 24.92449 52.99380 28157 ft 497 kts 100°
2026-05-04 07:45 24.91882 53.03147 28354 ft 500 kts 100°
2026-05-04 07:45 24.91311 53.06935 28519 ft 502 kts 100°
2026-05-04 07:46 24.90737 53.10737 28701 ft 504 kts 100°
2026-05-04 07:46 24.90160 53.14555 28889 ft 506 kts 100°
2026-05-04 07:46 24.89580 53.18385 29077 ft 508 kts 100°
2026-05-04 07:46 24.88998 53.22221 29283 ft 508 kts 100°
2026-05-04 07:47 24.88413 53.26067 29483 ft 510 kts 100°
2026-05-04 07:47 24.87825 53.29930 29629 ft 512 kts 100°
2026-05-04 07:47 24.87233 53.33807 29798 ft 514 kts 100°
2026-05-04 07:49 24.83016 53.61247 30837 ft 524 kts 100°
2026-05-04 07:49 24.82403 53.65205 30963 ft 525 kts 100°
2026-05-04 07:49 24.81789 53.69163 31115 ft 526 kts 100°
2026-05-04 07:50 24.81173 53.73134 31276 ft 526 kts 100°
2026-05-04 07:50 24.80555 53.77100 31512 ft 525 kts 100°
2026-05-04 07:50 24.79940 53.81051 31770 ft 523 kts 100°
2026-05-04 07:50 24.79324 53.84992 31973 ft 523 kts 100°
2026-05-04 07:51 24.78708 53.88931 32155 ft 523 kts 100°
2026-05-04 07:51 24.78090 53.92875 32346 ft 522 kts 101°
2026-05-04 07:51 24.77472 53.96809 32539 ft 522 kts 101°
2026-05-04 07:51 24.76852 54.00749 32739 ft 522 kts 100°
2026-05-04 07:52 24.75618 54.08576 33035 ft 524 kts 101°
2026-05-04 07:52 24.74994 54.12522 33232 ft 523 kts 101°
2026-05-04 07:52 24.74370 54.16462 33432 ft 523 kts 101°
2026-05-04 07:53 24.73745 54.20399 33620 ft 522 kts 101°
2026-05-04 07:54 24.69568 54.46550 34740 ft 519 kts 101°
2026-05-04 07:55 24.68940 54.50455 34889 ft 518 kts 101°
2026-05-04 07:55 24.68311 54.54359 34986 ft 519 kts 101°
2026-05-04 07:55 24.67680 54.58270 35113 ft 520 kts 101°
2026-05-04 07:55 24.67048 54.62179 35258 ft 519 kts 101°
2026-05-04 07:56 24.66416 54.66085 35419 ft 519 kts 101°
2026-05-04 07:56 24.65784 54.69982 35571 ft 518 kts 101°
2026-05-04 07:56 24.65151 54.73879 35723 ft 517 kts 101°
2026-05-04 07:56 24.64518 54.77770 35865 ft 517 kts 101°
2026-05-04 07:57 24.63883 54.81664 35975 ft 518 kts 101°
2026-05-04 07:57 24.63247 54.85560 36119 ft 517 kts 101°
2026-05-04 07:57 24.62611 54.89448 36265 ft 517 kts 101°
2026-05-04 07:57 24.61975 54.93332 36397 ft 517 kts 101°
2026-05-04 07:58 24.61338 54.97212 36589 ft 515 kts 101°
2026-05-04 07:58 24.60703 55.01077 36772 ft 514 kts 101°
2026-05-04 07:58 24.60066 55.04945 36897 ft 514 kts 100°
2026-05-04 07:58 24.59429 55.08807 37006 ft 514 kts 100°
2026-05-04 07:59 24.58791 55.12675 37140 ft 514 kts 100°
2026-05-04 07:59 24.58152 55.16535 37290 ft 513 kts 100°
2026-05-04 07:59 24.57512 55.20393 37433 ft 513 kts 100°
2026-05-04 07:59 24.56873 55.24245 37571 ft 512 kts 100°
2026-05-04 08:00 24.56232 55.28098 37718 ft 512 kts 100°
2026-05-04 08:00 24.55592 55.31940 37821 ft 512 kts 100°
2026-05-04 08:00 24.54950 55.35791 37940 ft 512 kts 100°
2026-05-04 08:02 24.50457 55.62554 38844 ft 507 kts 100°
2026-05-04 08:02 24.49167 55.70182 38863 ft 508 kts 100°
2026-05-04 08:03 24.47875 55.77800 38862 ft 508 kts 100°
2026-05-04 08:03 24.46579 55.85413 38860 ft 507 kts 100°
2026-05-04 08:04 24.45280 55.93024 38860 ft 507 kts 100°
2026-05-04 08:04 24.43977 56.00632 38853 ft 507 kts 100°
2026-05-04 08:05 24.42670 56.08240 38856 ft 507 kts 101°
2026-05-04 08:05 24.41360 56.15846 38844 ft 507 kts 101°
2026-05-04 08:06 24.40046 56.23440 38852 ft 506 kts 101°
2026-05-04 08:06 24.38733 56.31015 38815 ft 505 kts 101°
2026-05-04 08:08 24.33443 56.61299 38720 ft 507 kts 101°
2026-05-04 08:11 24.27400 56.95444 38770 ft 507 kts 101°
2026-05-04 08:11 24.25369 57.06819 38779 ft 507 kts 101°
2026-05-04 08:12 24.24010 57.14399 38780 ft 507 kts 101°
2026-05-04 08:12 24.22647 57.21981 38776 ft 507 kts 101°
2026-05-04 08:13 24.21280 57.29561 38774 ft 507 kts 101°
2026-05-04 08:13 24.19910 57.37137 38775 ft 507 kts 101°
2026-05-04 08:14 24.18537 57.44706 38776 ft 506 kts 101°
2026-05-04 08:16 24.13030 57.74844 38768 ft 506 kts 101°
2026-05-04 08:16 24.11642 57.82389 38768 ft 506 kts 101°
2026-05-04 08:17 24.10249 57.89938 38771 ft 506 kts 101°
2026-05-04 08:17 24.08853 57.97481 38771 ft 506 kts 101°
2026-05-04 08:19 24.03229 58.27645 38774 ft 506 kts 101°
2026-05-04 08:20 24.01812 58.35192 38771 ft 506 kts 101°
2026-05-04 08:20 24.00392 58.42733 38771 ft 506 kts 101°
2026-05-04 08:21 23.98968 58.50277 38774 ft 507 kts 101°
2026-05-04 08:21 23.97539 58.57825 38774 ft 507 kts 101°
2026-05-04 08:22 23.96106 58.65372 38771 ft 507 kts 101°
2026-05-04 08:24 23.90357 58.95436 38766 ft 504 kts 101°
2026-05-04 08:24 23.88913 59.02940 38768 ft 504 kts 101°
2026-05-04 08:25 23.87474 59.10396 38766 ft 505 kts 101°
2026-05-04 08:25 23.86019 59.17911 38768 ft 506 kts 101°
2026-05-04 08:27 23.80258 59.47973 38763 ft 503 kts 95°
2026-05-04 08:28 23.80450 59.55554 38761 ft 499 kts 81°
2026-05-04 08:28 23.81523 59.63041 38762 ft 499 kts 78°
2026-05-04 08:29 23.82758 59.70513 38761 ft 500 kts 77°
2026-05-04 08:31 23.87539 60.00426 38755 ft 501 kts 78°
2026-05-04 08:33 23.92228 60.30481 38755 ft 502 kts 78°
2026-05-04 08:35 23.96868 60.60615 38752 ft 504 kts 78°
2026-05-04 08:35 23.98021 60.68168 38752 ft 503 kts 78°
2026-05-04 08:37 24.02024 60.94582 38752 ft 505 kts 78°
2026-05-04 08:38 24.03162 61.02153 38755 ft 505 kts 78°
2026-05-04 08:38 24.04298 61.09731 38755 ft 505 kts 78°
2026-05-04 08:40 24.08802 61.40069 38757 ft 505 kts 78°
2026-05-04 08:41 24.09918 61.47668 38754 ft 506 kts 78°
2026-05-04 08:41 24.11028 61.55263 38753 ft 505 kts 78°
2026-05-04 08:42 24.12136 61.62863 38750 ft 505 kts 78°
2026-05-04 08:42 24.13233 61.70418 38754 ft 506 kts 78°
2026-05-04 08:43 24.14333 61.78018 38754 ft 506 kts 78°
2026-05-04 08:43 24.15399 61.85629 38756 ft 506 kts 79°
2026-05-04 08:44 24.16430 61.93245 38762 ft 506 kts 79°
2026-05-04 08:46 24.20358 62.22464 38759 ft 506 kts 79°
2026-05-04 08:46 24.21378 62.30102 38760 ft 507 kts 79°
2026-05-04 08:47 24.22395 62.37742 38760 ft 507 kts 79°
2026-05-04 08:47 24.23408 62.45389 38756 ft 507 kts 79°
2026-05-04 08:48 24.24417 62.53037 38765 ft 507 kts 79°
2026-05-04 08:48 24.25423 62.60688 38760 ft 508 kts 78°
2026-05-04 08:49 24.26426 62.68347 38757 ft 508 kts 79°
2026-05-04 08:50 24.29907 62.95176 38761 ft 508 kts 78°
2026-05-04 08:51 24.30894 63.02851 38756 ft 508 kts 78°
2026-05-04 08:51 24.31876 63.10526 38754 ft 508 kts 79°
2026-05-04 08:52 24.32855 63.18199 38752 ft 508 kts 79°
2026-05-04 08:52 24.33821 63.25808 38756 ft 507 kts 79°
2026-05-04 08:54 24.37670 63.56421 38752 ft 507 kts 79°
2026-05-04 08:55 24.38622 63.64079 38750 ft 507 kts 79°
2026-05-04 08:55 24.39571 63.71738 38748 ft 507 kts 79°
2026-05-04 09:01 24.49299 64.52203 38736 ft 507 kts 79°
2026-05-04 09:01 24.50204 64.59888 38734 ft 507 kts 79°
2026-05-04 09:02 24.51106 64.67570 38734 ft 507 kts 79°
2026-05-04 09:02 24.52004 64.75255 38732 ft 507 kts 79°
2026-05-04 09:03 24.52907 64.82935 38728 ft 507 kts 78°
2026-05-04 09:03 24.54096 64.90553 38733 ft 505 kts 76°
2026-05-04 09:04 24.55439 64.98128 38735 ft 505 kts 75°
2026-05-04 09:04 24.56763 65.05664 38728 ft 506 kts 75°
2026-05-04 09:05 24.58071 65.13312 38724 ft 506 kts 76°
2026-05-04 09:05 24.59346 65.20865 38724 ft 506 kts 76°
2026-05-04 09:06 24.60623 65.28471 38721 ft 506 kts 76°
2026-05-04 09:08 24.65646 65.58931 38715 ft 506 kts 76°
2026-05-04 09:08 24.66888 65.66556 38709 ft 506 kts 76°
2026-05-04 09:09 24.68127 65.74178 38703 ft 506 kts 76°
2026-05-04 09:09 24.69362 65.81804 38703 ft 506 kts 76°
2026-05-04 09:10 24.70594 65.89433 38703 ft 506 kts 76°
2026-05-04 09:10 24.71820 65.97054 38705 ft 506 kts 76°
2026-05-04 09:11 24.73035 66.04630 38702 ft 506 kts 76°
2026-05-04 09:11 24.74254 66.12254 38703 ft 506 kts 76°
2026-05-04 09:12 24.75469 66.19883 38699 ft 506 kts 76°
2026-05-04 09:14 24.80301 66.50473 38694 ft 508 kts 76°
2026-05-04 09:14 24.81500 66.58130 38706 ft 508 kts 76°
2026-05-04 09:15 24.82697 66.65798 38691 ft 509 kts 76°
2026-05-04 09:15 24.83933 66.73472 38694 ft 509 kts 75°
2026-05-04 09:17 24.89566 67.08013 38693 ft 510 kts 75°
2026-05-04 09:18 24.90804 67.15700 38691 ft 510 kts 75°
2026-05-04 09:18 24.92295 67.23305 38697 ft 506 kts 70°
2026-05-04 09:19 24.94153 67.30776 38681 ft 506 kts 69°
2026-05-04 09:19 24.96043 67.38243 38685 ft 506 kts 69°
2026-05-04 09:20 24.97874 67.45679 38675 ft 506 kts 70°
2026-05-04 09:20 24.99687 67.53184 38665 ft 507 kts 70°
2026-05-04 09:21 25.01489 67.60693 38670 ft 507 kts 70°
2026-05-04 09:21 25.03297 67.68207 38660 ft 507 kts 70°
2026-05-04 09:22 25.05107 67.75716 38654 ft 507 kts 70°
2026-05-04 09:22 25.06915 67.83234 38664 ft 507 kts 70°
2026-05-04 09:23 25.08717 67.90746 38651 ft 507 kts 70°
2026-05-04 09:23 25.10517 67.98267 38647 ft 507 kts 70°
2026-05-04 09:25 25.17676 68.28372 38651 ft 508 kts 70°
2026-05-04 09:26 25.19459 68.35914 38645 ft 508 kts 70°
2026-05-04 09:26 25.21239 68.43465 38645 ft 508 kts 70°
2026-05-04 09:27 25.23014 68.51013 38645 ft 508 kts 70°
2026-05-04 09:27 25.24787 68.58569 38646 ft 508 kts 70°
2026-05-04 09:28 25.26554 68.66122 38655 ft 508 kts 70°
2026-05-04 09:28 25.28320 68.73688 38642 ft 509 kts 70°
2026-05-04 09:29 25.30082 68.81258 38639 ft 509 kts 70°
2026-05-04 09:29 25.31842 68.88834 38640 ft 509 kts 70°
2026-05-04 09:30 25.33596 68.96409 38639 ft 509 kts 70°
2026-05-04 09:30 25.35335 69.03934 38636 ft 509 kts 70°
2026-05-04 09:31 25.37082 69.11514 38633 ft 509 kts 70°
2026-05-04 09:31 25.38826 69.19099 38634 ft 509 kts 70°
2026-05-04 09:32 25.40565 69.26682 38631 ft 509 kts 71°
2026-05-04 09:34 25.47190 69.55747 38636 ft 509 kts 71°
2026-05-04 09:34 25.48909 69.63335 38631 ft 508 kts 71°
2026-05-04 09:35 25.50625 69.70931 38628 ft 508 kts 71°
2026-05-04 09:35 25.51619 69.78722 38625 ft 512 kts 76°
2026-05-04 09:37 25.58789 70.08943 38625 ft 508 kts 70°
2026-05-04 09:38 25.60569 70.16514 38622 ft 508 kts 70°
2026-05-04 09:38 25.62341 70.24089 38624 ft 508 kts 71°
2026-05-04 09:39 25.64111 70.31665 38625 ft 508 kts 71°
2026-05-04 09:39 25.65867 70.39194 38626 ft 508 kts 71°
2026-05-04 09:40 25.67633 70.46776 38625 ft 508 kts 71°
2026-05-04 09:40 25.69391 70.54347 38633 ft 508 kts 71°
2026-05-04 09:42 25.76397 70.84708 38620 ft 508 kts 71°
2026-05-04 09:43 25.78137 70.92302 38622 ft 508 kts 71°
2026-05-04 09:43 25.79875 70.99902 38620 ft 509 kts 71°
2026-05-04 09:44 25.81611 71.07511 38620 ft 509 kts 71°
2026-05-04 09:46 25.88503 71.37920 38617 ft 509 kts 71°
2026-05-04 09:46 25.90218 71.45536 38617 ft 509 kts 71°
2026-05-04 09:47 25.91930 71.53160 38617 ft 509 kts 71°
2026-05-04 09:49 25.98746 71.83708 38615 ft 510 kts 71°
2026-05-04 09:51 26.04667 72.10511 38616 ft 511 kts 71°
2026-05-04 09:51 26.06355 72.18197 38612 ft 511 kts 71°
2026-05-04 09:52 26.08026 72.25831 38617 ft 511 kts 71°
2026-05-04 09:52 26.09707 72.33524 38612 ft 512 kts 72°
2026-05-04 09:53 26.11387 72.41235 38615 ft 513 kts 72°
2026-05-04 09:53 26.13062 72.48948 38618 ft 513 kts 72°
2026-05-04 09:54 26.14734 72.56669 38614 ft 513 kts 72°
2026-05-04 09:54 26.16401 72.64386 38621 ft 512 kts 72°
2026-05-04 09:55 26.18060 72.72092 38625 ft 512 kts 72°
2026-05-04 09:55 26.19715 72.79794 38628 ft 512 kts 72°
2026-05-04 09:56 26.21367 72.87502 38647 ft 512 kts 72°
2026-05-04 09:56 26.23013 72.95206 38668 ft 512 kts 72°
2026-05-04 09:57 26.24652 73.02904 38668 ft 509 kts 73°
2026-05-04 09:57 26.26217 73.10594 38688 ft 509 kts 74°
2026-05-04 09:58 26.27717 73.18302 38689 ft 509 kts 74°
2026-05-04 09:58 26.29200 73.25958 38709 ft 509 kts 74°
2026-05-04 10:00 26.34506 73.53291 38718 ft 522 kts 74°
2026-05-04 10:00 26.35270 73.57250 38718 ft 522 kts 74°
2026-05-04 10:04 26.45763 74.12258 38737 ft 519 kts 77°
2026-05-04 10:04 26.47249 74.20150 38734 ft 520 kts 77°
2026-05-04 10:05 26.48722 74.27994 38744 ft 520 kts 77°
2026-05-04 10:05 26.50200 74.35891 38771 ft 520 kts 77°
2026-05-04 10:06 26.51677 74.43805 38763 ft 522 kts 77°
2026-05-04 10:06 26.53154 74.51750 38764 ft 523 kts 77°
2026-05-04 10:08 26.58569 74.79525 38738 ft 520 kts 66°
2026-05-04 10:08 26.61928 74.86600 38755 ft 516 kts 59°
2026-05-04 10:09 26.64487 74.94123 38745 ft 521 kts 73°
2026-05-04 10:09 26.66192 75.02016 38771 ft 523 kts 76°
2026-05-04 10:10 26.67686 75.09974 38787 ft 523 kts 77°
2026-05-04 10:10 26.69153 75.17928 38801 ft 521 kts 77°
2026-05-04 10:11 26.70724 75.25800 38805 ft 516 kts 76°
2026-05-04 10:11 26.72336 75.33559 38806 ft 516 kts 76°
2026-05-04 10:12 26.73954 75.41370 38825 ft 516 kts 76°
2026-05-04 10:12 26.75561 75.49195 38821 ft 516 kts 76°
2026-05-04 10:13 26.77157 75.57024 38821 ft 516 kts 76°
2026-05-04 10:13 26.78749 75.64860 38811 ft 516 kts 76°
2026-05-04 10:14 26.80336 75.72693 38801 ft 516 kts 76°
2026-05-04 10:16 26.82409 76.00545 38840 ft 515 kts 91°
2026-05-04 10:16 26.82335 76.04548 38840 ft 515 kts 91°
2026-05-04 10:16 26.82192 76.12563 38822 ft 515 kts 91°
2026-05-04 10:17 26.82062 76.20596 38820 ft 519 kts 91°
2026-05-04 10:19 26.81577 76.53332 38764 ft 529 kts 92°
2026-05-04 10:19 26.81574 76.61546 38763 ft 527 kts 91°
2026-05-04 10:20 26.81578 76.69756 38753 ft 527 kts 92°
2026-05-04 10:20 26.81567 76.77959 38753 ft 527 kts 92°
2026-05-04 10:21 26.81544 76.86160 38744 ft 527 kts 92°
2026-05-04 10:21 26.81515 76.94364 38737 ft 528 kts 92°
2026-05-04 10:22 26.81462 77.06699 38738 ft 528 kts 92°
2026-05-04 10:23 26.81422 77.14923 38735 ft 528 kts 92°
2026-05-04 10:25 26.81028 77.46421 38727 ft 529 kts 94°
2026-05-04 10:25 26.80886 77.56036 38721 ft 529 kts 94°
2026-05-04 10:26 26.80762 77.64205 38717 ft 528 kts 94°
2026-05-04 10:26 26.80633 77.72404 38714 ft 526 kts 95°
2026-05-04 10:27 26.80520 77.79266 38715 ft 526 kts 95°
2026-05-04 10:27 26.80381 77.87447 38715 ft 526 kts 95°
2026-05-04 10:28 26.80238 77.95633 38720 ft 526 kts 95°
2026-05-04 10:28 26.80089 78.03831 38721 ft 528 kts 95°
2026-05-04 10:29 26.79936 78.12001 38721 ft 529 kts 95°
2026-05-04 10:29 26.79779 78.20229 38722 ft 529 kts 95°
2026-05-04 10:30 26.79616 78.28455 38727 ft 529 kts 95°
2026-05-04 10:30 26.79449 78.36675 38730 ft 529 kts 95°
2026-05-04 10:31 26.79277 78.44899 38722 ft 529 kts 96°
2026-05-04 10:32 26.78635 78.73693 38733 ft 529 kts 96°
2026-05-04 10:33 26.78440 78.81946 38726 ft 531 kts 96°
2026-05-04 10:33 26.78241 78.90208 38725 ft 531 kts 96°
2026-05-04 10:34 26.78038 78.98462 38733 ft 531 kts 96°
2026-05-04 10:34 26.77829 79.06727 38726 ft 531 kts 96°
2026-05-04 10:35 26.77677 79.15005 38733 ft 534 kts 95°
2026-05-04 10:35 26.77590 79.23318 38732 ft 534 kts 95°
2026-05-04 10:36 26.77503 79.31629 38743 ft 534 kts 95°
2026-05-04 10:36 26.77402 79.39940 38711 ft 534 kts 95°
2026-05-04 10:37 26.77291 79.48200 38749 ft 535 kts 95°
2026-05-04 10:37 26.77173 79.56535 38743 ft 536 kts 95°
2026-05-04 10:39 26.76724 79.85715 38750 ft 536 kts 95°
2026-05-04 10:40 26.76585 79.94047 38762 ft 536 kts 95°
2026-05-04 10:40 26.76441 80.02382 38767 ft 536 kts 95°
2026-05-04 10:41 26.76292 80.10711 38757 ft 535 kts 95°
2026-05-04 10:41 26.76632 80.19067 38755 ft 539 kts 89°
2026-05-04 10:42 26.77293 80.27411 38761 ft 538 kts 88°
2026-05-04 10:42 26.78015 80.35748 38765 ft 538 kts 88°
2026-05-04 10:43 26.78731 80.44089 38765 ft 538 kts 88°
2026-05-04 10:45 26.81475 80.77374 38797 ft 537 kts 88°
2026-05-04 10:45 26.82147 80.85697 38802 ft 537 kts 88°
2026-05-04 10:46 26.82815 80.94026 38797 ft 537 kts 88°
2026-05-04 10:46 26.83477 81.02345 38798 ft 536 kts 89°
2026-05-04 10:47 26.84133 81.10652 38791 ft 536 kts 89°
2026-05-04 10:47 26.84785 81.18966 38786 ft 536 kts 89°
2026-05-04 10:49 26.87341 81.52201 38771 ft 535 kts 89°
2026-05-04 10:50 26.87967 81.60512 38773 ft 535 kts 89°
2026-05-04 10:52 26.90424 81.93737 38777 ft 535 kts 89°
2026-05-04 10:52 26.91022 82.01987 38785 ft 535 kts 89°
2026-05-04 10:54 26.93382 82.35195 38778 ft 535 kts 89°
2026-05-04 10:56 26.95665 82.68392 38791 ft 534 kts 90°
2026-05-04 10:57 26.96222 82.76683 38811 ft 534 kts 90°
2026-05-04 10:57 26.96775 82.84979 38817 ft 533 kts 90°
2026-05-04 10:58 26.97322 82.93255 38823 ft 532 kts 90°
2026-05-04 10:58 26.97894 83.01538 38834 ft 533 kts 88°
2026-05-04 10:59 26.98704 83.09807 38845 ft 534 kts 87°
2026-05-04 10:59 26.99594 83.18076 38851 ft 534 kts 87°
2026-05-04 11:00 27.00461 83.26326 38848 ft 531 kts 87°
2026-05-04 11:02 27.03759 83.59253 38873 ft 533 kts 88°
2026-05-04 11:05 27.09628 84.19959 33367 ft 507 kts 87°
2026-05-04 11:06 27.09999 84.23889 32777 ft 506 kts 87°
2026-05-04 11:06 27.10362 84.27757 32204 ft 505 kts 87°
2026-05-04 11:06 27.10729 84.31675 31611 ft 504 kts 87°
2026-05-04 11:06 27.11093 84.35578 31109 ft 501 kts 86°
2026-05-04 11:08 27.13579 84.62515 26547 ft 495 kts 86°
2026-05-04 11:10 27.15682 84.88686 22687 ft 469 kts 86°
2026-05-04 11:12 27.24343 85.09751 21000 ft 390 kts 50°
2026-05-04 11:12 27.26013 85.12104 20889 ft 380 kts 50°
2026-05-04 11:12 27.27642 85.14421 20652 ft 375 kts 51°
2026-05-04 11:12 27.29212 85.16672 20500 ft 367 kts 51°
2026-05-04 11:13 27.30813 85.18841 20465 ft 354 kts 47°
2026-05-04 11:13 27.32489 85.20813 20338 ft 344 kts 41°
2026-05-04 11:13 27.34262 85.22546 20252 ft 330 kts 35°
2026-05-04 11:13 27.36104 85.23987 20152 ft 315 kts 33°
2026-05-04 11:14 27.37578 85.25666 20343 ft 291 kts 57°
2026-05-04 11:14 27.38401 85.27660 20311 ft 277 kts 71°
2026-05-04 11:14 27.38800 85.29788 19782 ft 282 kts 91°
2026-05-04 11:16 27.31265 85.30699 17263 ft 225 kts 258°
2026-05-04 11:16 27.31086 85.28957 16933 ft 223 kts 263°
2026-05-04 11:16 27.30968 85.27224 16604 ft 221 kts 264°
2026-05-04 11:17 27.30839 85.25510 16294 ft 219 kts 263°
2026-05-04 11:17 27.30673 85.23823 15975 ft 216 kts 263°
2026-05-04 11:19 27.33221 85.14151 13892 ft 229 kts 360°
2026-05-04 11:19 27.34726 85.14771 13585 ft 238 kts 33°
2026-05-04 11:19 27.35722 85.16246 13294 ft 240 kts 68°
2026-05-04 11:19 27.36146 85.18027 13009 ft 238 kts 78°
2026-05-04 11:20 27.36439 85.19856 12713 ft 237 kts 79°
2026-05-04 11:20 27.36721 85.21676 12421 ft 235 kts 79°
2026-05-04 11:20 27.37000 85.23477 12201 ft 232 kts 82°
2026-05-04 11:20 27.36962 85.25274 11896 ft 230 kts 106°
2026-05-04 11:22 27.31308 85.22449 9795 ft 196 kts 290°
2026-05-04 11:22 27.32107 85.21233 9535 ft 195 kts 322°
2026-05-04 11:23 27.33369 85.20800 9347 ft 192 kts 359°
2026-05-04 11:23 27.34671 85.21036 9127 ft 188 kts
2026-05-04 11:24 27.41479 85.23167 8527 ft 163 kts 16°
2026-05-04 11:25 27.42571 85.23643 8159 ft 170 kts 17°
2026-05-04 11:25 27.43656 85.24134 7916 ft 165 kts 15°
2026-05-04 11:25 27.44743 85.24410 7651 ft 157 kts
2026-05-04 11:26 27.46919 85.24591 6864 ft 158 kts 359°
2026-05-04 11:27 27.54808 85.24332 6438 ft 173 kts 20°
2026-05-04 11:28 27.55839 85.25001 6401 ft 170 kts 29°
2026-05-04 11:28 27.56772 85.25812 6439 ft 170 kts 35°
2026-05-04 11:28 27.57666 85.26660 6400 ft 167 kts 36°
2026-05-04 11:28 27.58510 85.27579 6420 ft 171 kts 44°
2026-05-04 11:29 27.59244 85.28621 6257 ft 171 kts 49°
2026-05-04 11:29 27.59966 85.29743 5905 ft 178 kts 50°
2026-05-04 11:29 27.60693 85.30796 5791 ft 163 kts 47°
2026-05-04 11:29 27.61487 85.31696 5673 ft 162 kts 37°
2026-05-04 11:31 27.68801 85.35526 4391 ft 147 kts 22°
2026-05-04 11:33 27.70188 85.36042 4401 ft 12 kts 231°
2026-05-04 11:33 27.70105 85.35999 4401 ft 16 kts 204°
2026-05-04 11:33 27.69990 85.35946 4401 ft 18 kts 202°
2026-05-04 11:34 27.69891 85.35901 4401 ft 14 kts 201°
2026-05-04 11:34 27.69819 85.35866 4401 ft 5 kts 211°
2026-05-04 11:34 27.69805 85.35846 4401 ft 1 kts 246°
2026-05-04 11:34 27.69803 85.35836 4401 ft 2 kts 255°
2026-05-04 11:35 27.69802 85.35817 4401 ft 3 kts 273°
2026-05-04 11:35 27.69807 85.35791 4401 ft 4 kts 283°
2026-05-04 11:35 27.69814 85.35767 4401 ft 0 kts 290°